Date String (YYYY-MM-DD hh:mm:ss) UTC,Instrument flags,absolute air pressure of the measurement (hPa),sample flow rate (lpm),inlet stack bypass flow (lpm),air temperature of the measurement (°C),ambient temperature measured by the external sensor (°C),aerosol sample conditioner tube jacket temperature (°C),OPC LED temperature (°C),internal box temperature (°C),relative humidity of the measurement (%),span deviation,mass concentration of particles derived from Lorenz-Mie calculation of OPC scattering (μg/m³),mass concentration of particles derived from Lorenz-Mie calculation of OPC scattering (μg/m³),mass concentration of particles derived from Lorenz-Mie calculation of OPC scattering (μg/m³)
DateTimeUTC,F1_M11,P_M11,Q1_M11,Q2_M11,T1_M11,T2_M11,T3_M11,T4_M11,T5_M11,U1_M11,ZSPAN_M11,X0_M11,X2_M11,X1_M11
2024-04-22 19:00:00,SystemResetWarning,0824.1,5.00,000.00,025.4,024.6,000.0,033.6,027.3,020.7,0004.4,0012.90,0007.22,0006.43
2024-04-22 19:01:00,SystemResetWarning,0824.1,5.00,000.00,025.4,024.7,000.0,033.6,027.4,021.2,0004.7,0013.26,0007.22,0006.41
2024-04-22 19:02:00,SystemResetWarning,0824.2,5.00,000.00,025.5,024.9,000.0,033.7,027.4,021.8,0005.1,0013.39,0007.18,0006.36
2024-04-22 19:03:00,SystemResetWarning,0824.1,5.00,000.00,025.6,025.0,000.0,033.7,027.5,021.4,0005.5,0013.83,0007.07,0006.26
2024-04-22 19:04:00,SystemResetWarning,0824.1,5.00,000.00,025.6,025.1,000.0,033.7,027.6,020.8,0005.4,0013.63,0007.01,0006.20
2024-04-22 19:05:00,SystemResetWarning,0824.1,5.00,000.00,025.7,025.2,000.0,033.8,027.6,020.5,0004.8,0013.63,0007.04,0006.22
2024-04-22 19:06:00,SystemResetWarning,0824.1,5.00,000.00,025.8,025.2,000.0,033.8,027.7,020.4,0004.5,0013.43,0007.16,0006.28
2024-04-22 19:07:00,SystemResetWarning,0824.1,4.99,000.00,025.8,025.3,000.0,033.9,027.8,020.5,0004.0,0013.52,0007.19,0006.28
2024-04-22 19:08:00,SystemResetWarning,0823.9,5.00,000.00,025.9,025.4,000.0,033.9,027.8,020.1,0004.1,0013.43,0007.17,0006.29
2024-04-22 19:09:00,SystemResetWarning,0824.0,4.99,000.00,025.9,025.4,000.0,034.0,027.9,020.1,0003.9,0013.34,0007.14,0006.31
2024-04-22 19:10:00,SystemResetWarning,0823.9,5.00,000.00,025.9,024.6,000.0,034.0,027.3,020.2,0003.4,0013.45,0007.08,0006.27
2024-04-22 19:11:00,SystemResetWarning,0823.9,5.00,000.00,025.5,022.5,000.0,034.1,026.1,020.2,0002.8,0013.54,0006.97,0006.21
2024-04-22 19:12:00,SystemResetWarning,0823.9,5.02,000.00,025.1,021.8,000.0,034.0,025.5,021.6,0002.6,0013.62,0006.90,0006.17
2024-04-22 19:13:00,SystemResetWarning,0823.9,5.00,000.00,024.9,022.2,000.0,033.9,025.7,021.0,0002.2,0014.11,0006.89,0006.18
2024-04-22 19:14:00,SystemResetWarning,0824.0,4.99,000.00,024.9,022.6,000.0,033.7,026.1,020.8,0001.9,0013.91,0007.02,0006.29
2024-04-22 19:15:00,SystemResetWarning,0824.2,5.01,000.00,025.0,023.0,000.0,033.7,026.4,020.8,0001.7,0013.54,0007.12,0006.40
2024-04-22 19:16:00,SystemResetWarning,0824.1,4.99,000.00,025.0,023.3,000.0,033.6,026.6,021.1,0002.2,0013.86,0007.19,0006.44
2024-04-22 19:17:00,SystemResetWarning,0824.1,4.99,000.00,025.1,023.6,000.0,033.6,026.8,021.3,0002.9,0013.90,0007.16,0006.42
2024-04-22 19:18:00,SystemResetWarning,0824.1,5.00,000.00,025.1,023.9,000.0,033.6,026.9,020.4,0003.9,0013.83,0007.15,0006.42
2024-04-22 19:19:00,SystemResetWarning,0824.0,4.99,000.00,025.2,024.1,000.0,033.6,027.0,020.4,0004.7,0014.09,0007.24,0006.50
2024-04-22 19:20:00,SystemResetWarning,0824.0,4.99,000.00,025.2,024.3,000.0,033.6,027.1,019.9,0005.0,0014.21,0007.36,0006.60
2024-04-22 19:21:00,SystemResetWarning,0824.0,5.00,000.00,025.3,024.5,000.0,033.6,027.2,020.8,0005.4,0013.73,0007.46,0006.72
2024-04-22 19:22:00,SystemResetWarning,0824.1,5.00,000.00,025.4,024.6,000.0,033.6,027.3,019.0,0005.4,0013.49,0007.63,0006.85
2024-04-22 19:23:00,SystemResetWarning,0824.1,5.00,000.00,025.4,024.7,000.0,033.6,027.4,018.8,0005.4,0013.31,0007.79,0006.99
2024-04-22 19:24:00,SystemResetWarning,0824.0,5.00,000.00,025.5,024.9,000.0,033.7,027.4,018.7,0005.6,0012.54,0007.87,0007.11
2024-04-22 19:25:00,SystemResetWarning,0824.0,5.00,000.00,025.6,025.0,000.0,033.7,027.5,019.1,0005.9,0012.63,0007.93,0007.16
2024-04-22 19:26:00,SystemResetWarning,0824.0,5.00,000.00,025.6,025.1,000.0,033.7,027.6,019.3,0005.9,0013.40,0007.94,0007.16
2024-04-22 19:27:00,SystemResetWarning,0824.0,5.00,000.00,025.7,025.1,000.0,033.8,027.6,019.4,0005.7,0013.42,0007.93,0007.16
2024-04-22 19:28:00,SystemResetWarning,0824.1,5.00,000.00,025.7,025.2,000.0,033.8,027.7,019.2,0005.6,0013.44,0007.90,0007.18
2024-04-22 19:29:00,SystemResetWarning,0824.1,5.00,000.00,025.8,025.3,000.0,033.9,027.7,019.1,0005.1,0013.31,0007.91,0007.21
2024-04-22 19:30:00,SystemResetWarning,0824.2,5.00,000.00,025.9,025.3,000.0,033.9,027.8,018.7,0005.3,0013.76,0007.86,0007.18
2024-04-22 19:31:00,SystemResetWarning,0824.2,5.00,000.00,025.9,025.4,000.0,034.0,027.8,018.3,0005.3,0013.84,0007.81,0007.15
2024-04-22 19:32:00,SystemResetWarning,0824.1,5.00,000.00,025.9,025.2,000.0,034.0,027.7,018.1,0004.9,0013.91,0007.80,0007.13
2024-04-22 19:33:00,SystemResetWarning,0824.0,4.99,000.00,025.7,023.3,000.0,034.1,026.5,019.0,0005.0,0014.64,0007.76,0007.11
2024-04-22 19:34:00,SystemResetWarning,0823.9,5.01,000.00,025.2,021.9,000.0,034.1,025.6,018.9,0004.7,0015.76,0007.66,0007.04
2024-04-22 19:35:00,SystemResetWarning,0824.0,5.02,000.00,025.0,022.1,000.0,034.0,025.6,019.4,0004.5,0016.78,0007.61,0006.97
2024-04-22 19:36:00,SystemResetWarning,0824.0,4.98,000.00,024.9,022.5,000.0,033.8,026.0,018.9,0004.2,0018.38,0007.56,0006.90
2024-04-22 19:37:00,SystemResetWarning,0824.0,5.01,000.00,024.9,022.9,000.0,033.7,026.3,019.1,0002.8,0019.06,0007.49,0006.83
2024-04-22 19:38:00,SystemResetWarning,0824.0,5.01,000.00,025.0,023.2,000.0,033.6,026.6,019.0,0002.6,0019.24,0007.44,0006.80
2024-04-22 19:39:00,SystemResetWarning,0824.0,4.99,000.00,025.0,023.5,000.0,033.6,026.8,018.4,0001.7,0019.65,0007.46,0006.75
2024-04-22 19:40:00,SystemResetWarning,0824.0,5.00,000.00,025.1,023.8,000.0,033.6,026.9,018.9,0002.3,0020.36,0007.42,0006.69
2024-04-22 19:41:00,SystemResetWarning,0824.2,5.00,000.00,025.2,024.0,000.0,033.6,027.0,019.1,0001.9,0020.38,0007.41,0006.64
2024-04-22 19:42:00,SystemResetWarning,0824.2,5.00,000.00,025.2,024.3,000.0,033.6,027.1,018.3,0000.9,0021.22,0007.32,0006.54
2024-04-22 19:43:00,SystemResetWarning,0824.1,5.00,000.00,025.3,024.4,000.0,033.6,027.2,018.9,0001.2,0021.97,0007.24,0006.44
2024-04-22 19:44:00,SystemResetWarning,0824.1,4.99,000.00,025.4,024.6,000.0,033.6,027.3,018.4,0001.9,0022.20,0007.15,0006.35
2024-04-22 19:45:00,SystemResetWarning,0824.1,5.00,000.00,025.5,024.7,000.0,033.6,027.4,017.9,0002.1,0021.79,0007.05,0006.25
2024-04-22 19:46:00,SystemResetWarning,0824.0,4.99,000.00,025.5,024.9,000.0,033.7,027.5,018.3,0001.7,0021.17,0006.96,0006.16
2024-04-22 19:47:00,SystemResetWarning,0824.0,5.00,000.00,025.6,025.0,000.0,033.7,027.5,017.5,0002.4,0019.78,0006.87,0006.07
2024-04-22 19:48:00,SystemResetWarning,0824.0,5.01,000.00,025.7,025.1,000.0,033.8,027.6,017.7,0004.0,0018.79,0006.78,0006.00
2024-04-22 19:49:00,SystemResetWarning,0824.0,5.00,000.00,025.7,025.2,000.0,033.8,027.7,017.7,0004.7,0017.84,0006.72,0005.92
2024-04-22 19:50:00,SystemResetWarning,0824.0,4.99,000.00,025.8,025.3,000.0,033.8,027.7,017.9,0004.5,0017.26,0006.62,0005.86
2024-04-22 19:51:00,SystemResetWarning,0824.2,4.99,000.00,025.8,025.3,000.0,033.9,027.8,018.3,0004.7,0016.59,0006.52,0005.78
2024-04-22 19:52:00,SystemResetWarning,0824.1,5.00,000.00,025.9,024.8,000.0,034.0,027.4,018.8,0004.1,0015.53,0006.39,0005.65
2024-04-22 19:53:00,SystemResetWarning,0824.0,5.00,000.00,025.5,022.7,000.0,034.0,026.2,018.0,0004.4,0014.85,0006.27,0005.55
2024-04-22 19:54:00,SystemResetWarning,0823.9,5.02,000.00,025.0,021.8,000.0,034.0,025.5,018.3,0004.3,0013.28,0006.16,0005.47
2024-04-22 19:55:00,SystemResetWarning,0824.0,5.01,000.00,024.9,022.1,000.0,033.9,025.7,018.2,0004.1,0012.79,0006.08,0005.41
2024-04-22 19:56:00,SystemResetWarning,0824.0,4.99,000.00,024.9,022.5,000.0,033.7,026.1,018.3,0004.0,0011.55,0006.04,0005.38
2024-04-22 19:57:00,SystemResetWarning,0824.0,5.00,000.00,024.9,022.9,000.0,033.6,026.4,018.0,0004.1,0011.62,0005.99,0005.34
2024-04-22 19:58:00,SystemResetWarning,0824.0,5.00,000.00,025.0,023.3,000.0,033.6,026.6,018.1,0004.0,0011.81,0005.94,0005.30
2024-04-22 19:59:00,SystemResetWarning,0824.0,5.00,000.00,025.0,023.6,000.0,033.5,026.7,018.6,0003.5,0011.31,0005.89,0005.26
